Location: Arcones
(41.1182°N, 3.7238°W)
Time: 08:12:40
(UTC+00:00)

IRAS Rocket - Pass Details

Date: 20 March 2026
Orbit: 845 x 876 km, 100.1° (Epoch: 18 April)

Event Time Altitude Azimuth Distance (km) Brightness Sun altitude
Rises 21:08:31 0° 206° (SSW) 3,450 7.3 -29.9°
Reaches altitude 10° 21:11:41 10° 224° (SW) 2,513 6.8 -30.4°
Maximum altitude 21:15:24 18° 267° (W) 1,999 6.6 -31.0°
Drops below altitude 10° 21:19:07 10° 309° (NW) 2,513 7.5 -31.6°
Sets 21:22:19 0° 328° (NNW) 3,449 8.3 -32.1°
